Flight Track Log - Related Links

Times and Time Zones

All times are in EDT time to prevent confusion due to time zone crossing. See the N510SR flight status page for this flight to view local times or setup timezone preferences in your user account.

Time Position Orientation Groundspeed Altitude Reporting Facility
EDT Latitude Longitude Course Direction KTS MPH feet Rate Location/Type
Tue 02:13:26 PM 40.8667 -72.8333 285° West 254 292 4,100  Level New York TRACON
Tue 02:14:27 PM 40.8667 -72.9167 270° West 274 315 6,300 1,983 Climbing New York TRACON
Tue 02:15:27 PM 40.8500 -73.0333 259° West 290 334 8,100 900 Climbing New York TRACON
Tue 02:16:27 PM 40.8333 -73.1333 269° West 307 353 8,100 150 Level New York TRACON
Tue 02:17:27 PM 40.8167 -73.2500 259° West 306 352 8,400 1,750 Climbing New York TRACON
Tue 02:18:27 PM 40.8500 -73.3333 298° West 292 336 11,600 1,800 Climbing New York TRACON
Tue 02:19:27 PM 40.9000 -73.4333 304° West 343 395 12,000 200 Climbing New York TRACON
Tue 02:20:27 PM 40.9667 -73.5500 307° West 347 399 12,000 50 Level New York TRACON
Tue 02:21:27 PM 41.0167 -73.6500 304° West 349 402 12,100  Climbing New York TRACON
Tue 02:22:27 PM 41.0833 -73.7500 312° West 349 402 12,000 -50 Descending New York TRACON
Tue 02:23:27 PM 41.1333 -73.8500 304° West 350 403 12,000  Level New York TRACON
Tue 02:24:27 PM 41.1833 -73.9500 304° West 348 400 12,000  Level New York TRACON
Tue 02:25:33 PM 41.2167 -74.1000 287° West 363 418 12,000  Level New York TRACON
Tue 02:26:33 PM 41.2000 -74.2167 259° West 359 413 12,000  Level New York TRACON
Tue 02:27:33 PM 41.1833 -74.3500 261° West 362 417 12,000 50 Level New York TRACON
Tue 02:28:33 PM 41.1667 -74.4833 261° West 362 417 12,100 250 Climbing New York TRACON
Tue 02:29:33 PM 41.1500 -74.6167 261° West 364 419 12,500 150 Climbing New York TRACON
Tue 02:30:33 PM 41.1167 -74.7500 252° West 370 426 12,400 -50 Descending New York TRACON
Tue 02:31:33 PM 41.0667 -74.8500 236° Southwest 376 433 12,400 -850 Level New York TRACON
Tue 02:32:33 PM 41.0000 -74.9500 229° Southwest 361 415 10,700 -2,211 Descending New York TRACON
Tue 02:33:27 PM 40.9333 -75.0333 223° Southwest 339 390 8,200 -2,000 Descending New York TRACON
Tue 02:34:33 PM 40.8667 -75.1167 223° Southwest 327 376 6,700 -1,333 Descending New York TRACON
Tue 02:35:33 PM 40.8167 -75.2000 232° Southwest 302 348 5,400 -1,150 Descending New York TRACON
Tue 02:36:33 PM 40.7667 -75.2833 232° Southwest 272 313 4,400 -700 Descending New York TRACON
Tue 02:37:33 PM 40.7333 -75.3667 242° Southwest 264 304 4,000 -400 Descending New York TRACON

Login

Don't have an account? Register now (free) for customized features, flight alerts, and more!